User: anonymous   Login
Location: ActonStarParty
(42.4766°N, 71.4538°W)
Time: 20:49:27
(UTC-04:00)
Language:

ITAMSAT 1 - Orbit

View from above orbital plane
View from above orbital plane
View from above satellite
View from above satellite

Ground track
Ground track

The orbit data is extracted from the following two-line orbital elements,

1 22826U 93061D   17084.90852726 -.00000002 +00000-0 +16712-4 0  9992
2 22826 098.7968 049.6022 0008460 198.7501 161.3370 14.30317769225428
Epoch (UTC): 25 March 2017 21:48:16
Eccentricity: 0.0008460
inclination: 98.7968°
perigee height: 784 km
apogee height: 797 km
right ascension of ascending node: 49.6022°
argument of perigee: 198.7501°
revolutions per day: 14.30317769
mean anomaly at epoch: 161.3370°
orbit number at epoch: 22542

The dashed part of the orbit path shows where the satellite is in the earth's shadow,  

DLR